Weather History for Boone, NC

Change the Weather History Date:

Sunday, May 12, 2013

  Actual Average (KGEV) Record (KGEV)
Temperature  
Mean Temperature 50 °F -  
Max Temperature 54 °F 70 °F 84 °F (2005)
Min Temperature 45 °F 46 °F 31 °F (1977)
Degree Days  
Heating Degree Days 16    
Moisture  
Dew Point 34 °F    
Average Humidity 58    
Maximum Humidity 97    
Minimum Humidity 34    
Precipitation  
Precipitation 0.00 in - - ()
Sea Level Pressure  
Sea Level Pressure 29.99 in    
Wind  
Wind Speed 16 mph (WNW)    
Max Wind Speed 26 mph    
Max Gust Speed 36 mph    
Visibility 10 miles    
Events Rain    
Averages and records for this station are not official NWS values.
T = Trace of Precipitation, MM = Missing Value Source: NWS Daily Summary

Daily Weather History Graph

Daily Weather History Graph

Search for Another Location

Airport:

Trip Planner

Search our weather history database for the weather conditions in past years. The results will help you decide how hot, cold, wet, or windy it might be!

Date:

Astronomy

May. 12, 2013 Rise Set
Actual Time 6:22 AM EDT 8:23 PM EDT
Civil Twilight 5:54 AM EDT 8:52 PM EDT
Nautical Twilight 5:19 AM EDT 9:26 PM EDT
Astronomical Twilight 4:42 AM EDT 10:04 PM EDT
Moon 8:17 AM EDT (5/12) 10:48 PM EDT (5/12)
Length of Visible Light 14h 57m
Length of Day
14h 01m
Waxing Crescent, 6% of the Moon is Illuminated
May 12
Waxing Crescent
May 18
First Quarter
May 25
Full
May 31
Last Quarter
Jun 8
New

Hourly Weather History & Observations

Time (EDT) Temp. Windchill Dew Point Humidity Pressure Visibility Wind Dir Wind Speed Gust Speed Precip Events Conditions
12:15 AM 54.5 °F - 46.6 °F 75% 29.94 in 10.0 mi WNW 18.4 mph 31.1 mph N/A   Clear
12:35 AM 54.0 °F - 46.8 °F 77% 29.93 in 10.0 mi WNW 19.6 mph 28.8 mph N/A   Clear
12:55 AM 53.6 °F - 46.6 °F 77% 29.93 in 10.0 mi WNW 20.7 mph 34.5 mph N/A   Clear
1:15 AM 52.7 °F - 46.0 °F 78% 29.93 in 10.0 mi WNW 18.4 mph 28.8 mph N/A   Clear
1:35 AM 52.0 °F - 45.9 °F 80% 29.92 in 10.0 mi NW 19.6 mph 26.5 mph N/A   Scattered Clouds
1:55 AM 51.8 °F - 45.5 °F 79% 29.93 in 10.0 mi WNW 11.5 mph 23.0 mph N/A   Scattered Clouds
2:15 AM 50.9 °F - 44.8 °F 80% 29.92 in 10.0 mi WNW 17.3 mph 23.0 mph N/A   Scattered Clouds
2:35 AM 50.5 °F - 44.2 °F 79% 29.93 in 10.0 mi NW 18.4 mph 31.1 mph N/A   Scattered Clouds
2:55 AM 50.2 °F - 43.7 °F 78% 29.93 in 10.0 mi WNW 12.7 mph 19.6 mph N/A   Scattered Clouds
3:15 AM 49.8 °F - 43.2 °F 78% 29.92 in 10.0 mi WNW 9.2 mph - N/A   Scattered Clouds
3:35 AM 49.3 °F - 43.0 °F 79% 29.92 in 10.0 mi WNW 9.2 mph 19.6 mph N/A   Mostly Cloudy
3:55 AM 48.9 °F - 43.0 °F 80% 29.92 in 10.0 mi NW 8.1 mph - N/A   Mostly Cloudy
4:15 AM 48.4 °F - 43.2 °F 82% 29.91 in 10.0 mi WNW 12.7 mph 20.7 mph N/A   Mostly Cloudy
4:35 AM 48.4 °F - 43.0 °F 82% 29.91 in 10.0 mi WNW 9.2 mph 20.7 mph N/A   Mostly Cloudy
4:55 AM 48.2 °F - 42.8 °F 82% 29.91 in 10.0 mi WNW 12.7 mph 19.6 mph N/A   Mostly Cloudy
5:35 AM 47.8 °F - 42.8 °F 83% 29.91 in 10.0 mi WNW 11.5 mph 19.6 mph N/A   Overcast
5:55 AM 47.7 °F - 42.3 °F 82% 29.91 in 10.0 mi NW 20.7 mph 28.8 mph N/A   Overcast
6:15 AM 47.5 °F - 44.4 °F 89% 29.91 in 5.0 mi WNW 18.4 mph 28.8 mph N/A   Drizzle
6:35 AM 47.5 °F - 46.2 °F 95% 29.91 in 3.0 mi NW 21.9 mph 28.8 mph N/A Rain Rain
6:55 AM 47.3 °F - 46.4 °F 97% 29.92 in 4.0 mi WNW 16.1 mph 25.3 mph N/A   Overcast
7:15 AM 47.5 °F - 46.6 °F 97% 29.94 in 7.0 mi WNW 17.3 mph 31.1 mph N/A Rain Light Rain
7:35 AM 48.2 °F - 45.7 °F 91% 29.94 in 10.0 mi WNW 13.8 mph 23.0 mph N/A   Mostly Cloudy
7:55 AM 48.7 °F - 44.2 °F 84% 29.93 in 10.0 mi WNW 21.9 mph 31.1 mph N/A   Scattered Clouds
8:15 AM 49.3 °F - 41.7 °F 75% 29.94 in 10.0 mi NW 20.7 mph 32.2 mph N/A   Scattered Clouds
8:35 AM 48.6 °F - 39.6 °F 71% 29.95 in 10.0 mi NW 16.1 mph 27.6 mph N/A   Scattered Clouds
8:55 AM 48.0 °F - 38.1 °F 69% 29.95 in 10.0 mi NW 18.4 mph 32.2 mph N/A   Clear
9:15 AM 48.4 °F - 37.2 °F 65% 29.97 in 10.0 mi WNW 23.0 mph 35.7 mph N/A   Clear
9:35 AM 48.4 °F - 36.3 °F 63% 29.98 in 10.0 mi WNW 21.9 mph 34.5 mph N/A   Clear
9:55 AM 49.1 °F - 35.8 °F 60% 29.98 in 10.0 mi WNW 25.3 mph 34.5 mph N/A   Clear
10:15 AM 48.4 °F - 35.1 °F 60% 29.98 in 10.0 mi WNW 13.8 mph 29.9 mph N/A   Scattered Clouds
10:35 AM 49.3 °F - 34.7 °F 57% 29.98 in 10.0 mi West 18.4 mph 31.1 mph N/A   Clear
10:55 AM 50.0 °F - 34.3 °F 55% 29.99 in 10.0 mi NW 11.5 mph 27.6 mph N/A   Scattered Clouds
11:15 AM 49.1 °F - 33.6 °F 55% 29.99 in 10.0 mi WNW 16.1 mph 28.8 mph N/A   Scattered Clouds
11:35 AM 49.3 °F - 32.9 °F 53% 29.99 in 10.0 mi West 18.4 mph 33.4 mph N/A   Scattered Clouds
11:55 AM 49.3 °F - 32.2 °F 52% 30.00 in 10.0 mi WNW 21.9 mph 35.7 mph N/A   Scattered Clouds
12:15 PM 49.5 °F - 31.1 °F 49% 30.00 in 10.0 mi WNW 26.5 mph 34.5 mph N/A   Scattered Clouds
12:35 PM 50.9 °F - 31.1 °F 47% 30.01 in 10.0 mi NW 19.6 mph 26.5 mph N/A   Clear
12:55 PM 50.5 °F - 30.9 °F 47% 30.01 in 10.0 mi NW 17.3 mph 33.4 mph N/A   Clear
1:15 PM 50.9 °F - 30.0 °F 45% 30.01 in 10.0 mi WNW 21.9 mph 32.2 mph N/A   Clear
1:35 PM 52.0 °F - 30.4 °F 44% 30.01 in 10.0 mi NW 20.7 mph 32.2 mph N/A   Clear
1:55 PM 52.2 °F - 29.3 °F 41% 30.01 in 10.0 mi NW 17.3 mph 29.9 mph N/A   Clear
2:15 PM 52.7 °F - 28.4 °F 39% 30.01 in 10.0 mi WNW 23.0 mph 31.1 mph N/A   Clear
2:35 PM 52.7 °F - 27.9 °F 38% 30.01 in 10.0 mi NW 16.1 mph 31.1 mph N/A   Clear
2:55 PM 53.1 °F - 27.1 °F 37% 30.01 in 10.0 mi West 18.4 mph 27.6 mph N/A   Clear
3:15 PM 53.4 °F - 27.1 °F 36% 30.01 in 10.0 mi WNW 19.6 mph 26.5 mph N/A   Clear
3:35 PM 53.1 °F - 26.8 °F 36% 30.01 in 10.0 mi WNW 16.1 mph 29.9 mph N/A   Clear
3:55 PM 54.0 °F - 26.4 °F 35% 30.01 in 10.0 mi NW 20.7 mph 26.5 mph N/A   Clear
4:15 PM 53.6 °F - 26.2 °F 35% 30.00 in 10.0 mi West 19.6 mph 27.6 mph N/A   Clear
4:35 PM 54.0 °F - 27.0 °F 35% 30.01 in 10.0 mi WNW 20.7 mph 27.6 mph N/A   Clear
4:55 PM 53.8 °F - 26.6 °F 35% 30.01 in 10.0 mi WNW 18.4 mph 27.6 mph N/A   Clear
5:15 PM 53.2 °F - 26.1 °F 35% 30.01 in 10.0 mi NW 17.3 mph 31.1 mph N/A   Clear
5:35 PM 53.4 °F - 25.7 °F 34% 30.01 in 10.0 mi WNW 23.0 mph 29.9 mph N/A   Clear
5:55 PM 53.1 °F - 25.5 °F 34% 30.02 in 10.0 mi WNW 13.8 mph 26.5 mph N/A   Clear
6:15 PM 53.2 °F - 25.7 °F 34% 30.03 in 10.0 mi NW 9.2 mph 23.0 mph N/A   Clear
6:35 PM 52.9 °F - 25.5 °F 35% 30.03 in 10.0 mi NW 15.0 mph 23.0 mph N/A   Clear
6:55 PM 52.3 °F - 25.5 °F 35% 30.04 in 10.0 mi WNW 12.7 mph 21.9 mph N/A   Clear
7:15 PM 52.3 °F - 26.1 °F 36% 30.04 in 10.0 mi NW 13.8 mph 18.4 mph N/A   Clear
7:35 PM 51.3 °F - 25.2 °F 36% 30.04 in 10.0 mi WNW 13.8 mph 24.2 mph N/A   Clear
7:55 PM 50.7 °F - 25.5 °F 38% 30.05 in 10.0 mi NW 10.4 mph 19.6 mph N/A   Clear
8:15 PM 49.6 °F - 25.7 °F 39% 30.05 in 10.0 mi NW 9.2 mph 18.4 mph N/A   Clear
8:35 PM 49.1 °F - 26.1 °F 41% 30.05 in 10.0 mi NW 9.2 mph - N/A   Clear
8:55 PM 48.4 °F - 26.4 °F 42% 30.05 in 10.0 mi NW 8.1 mph - N/A   Clear
9:15 PM 47.7 °F - 26.4 °F 44% 30.05 in 10.0 mi NW 6.9 mph - N/A   Clear
9:35 PM 47.5 °F - 26.6 °F 44% 30.05 in 10.0 mi NW 10.4 mph - N/A   Clear
9:55 PM 47.5 °F - 27.1 °F 45% 30.05 in 10.0 mi NNW 9.2 mph - N/A   Clear
10:15 PM 46.6 °F - 27.3 °F 47% 30.06 in 10.0 mi NNW 9.2 mph 16.1 mph N/A   Clear
10:35 PM 46.6 °F - 27.1 °F 47% 30.07 in 10.0 mi NNW 8.1 mph - N/A   Clear
10:55 PM 45.5 °F - 27.0 °F 48% 30.07 in 10.0 mi Calm Calm - N/A   Clear
11:15 PM 45.9 °F 41.7 °F 27.1 °F 48% 30.07 in 10.0 mi WNW 8.1 mph - N/A   Clear
11:35 PM 45.0 °F 42.6 °F 27.3 °F 50% 30.07 in 10.0 mi NW 4.6 mph - N/A   Clear
11:55 PM 45.0 °F 41.8 °F 27.0 °F 49% 30.07 in 10.0 mi NW 5.8 mph - N/A   Clear